This demonstration page uses our WeatherBlox Daily Observations layout. Learn more.

Left ArrowRight Arrow

40.92501, -98.34201

Hourly Observations for August 15, 2020

Temp ( °F °C ) Dew Point ( °F °C ) Humidity (%) Winds ( mph kmh ) Pressure ( in mb ) Visibility ( mi km ) Precip ( " mm )
12:53 am 00:53 Clear 66 18.9 61 16.1 84 84 Calm 30.06 1018 10 16 0.00 0.00
1:53 am 01:53 Clear 64 17.8 60 15.6 87 87 Calm 30.07 1018 10 16 0.00 0.00
2:53 am 02:53 Clear 62 16.7 58 14.4 86 86 WNW 7 11 30.08 1019 10 16 0.00 0.00
3:53 am 03:53 Clear 61 16.1 57 13.9 87 87 WNW 3 6 30.08 1019 10 16 0.00 0.00
4:53 am 04:53 Clear 58 14.4 55 12.8 90 90 NNE 7 11 30.08 1019 8 13 0.00 0.00
5:53 am 05:53 Clear 60 15.6 56 13.3 86 86 NE 8 13 30.07 1018 9 14 0.00 0.00
6:53 am 06:53 Sunny 59 15 56 13.3 90 90 NNE 7 11 30.09 1019 8 13 0.00 0.00
7:53 am 07:53 Sunny 63 17.2 58 14.4 84 84 Calm 30.11 1020 10 16 0.00 0.00
8:53 am 08:53 Sunny 67 19.4 59 15 76 76 E 3 6 30.13 1020 10 16 0.00 0.00
9:53 am 09:53 Sunny 72 22.2 59 15 64 64 SE 7 11 30.13 1020 10 16 0.00 0.00
10:53 am 10:53 Sunny 76 24.4 56 13.3 50 50 E 8 13 30.12 1020 10 16 0.00 0.00
11:53 am 11:53 Sunny 79 26.1 53 11.7 41 41 SSE 9 15 30.12 1020 10 16 0.00 0.00
12:53 pm 12:53 Sunny 81 27.2 49 9.4 33 33 SSE 9 15 30.12 1020 10 16 0.00 0.00
1:53 pm 13:53 Sunny 83 28.3 49 9.4 31 31 S 7 11 30.11 1020 10 16 0.00 0.00
2:53 pm 14:53 Sunny 84 28.9 48 8.9 29 29 SSE 6 9 30.11 1020 10 16 0.00 0.00
3:53 pm 15:53 Sunny 85 29.4 51 10.6 31 31 SSE 9 15 30.09 1019 10 16 0.00 0.00
4:53 pm 16:53 Sunny 84 28.9 51 10.6 32 32 SSE 8 13 30.08 1019 10 16 0.00 0.00
5:53 pm 17:53 Sunny 84 28.9 53 11.7 34 34 SSE 9 15 30.07 1018 10 16 0.00 0.00
6:53 pm 18:53 Sunny 81 27.2 56 13.3 42 42 SE 8 13 30.09 1019 10 16 0.00 0.00
7:53 pm 19:53 Sunny 76 24.4 57 13.9 52 52 SE 5 7 30.08 1019 10 16 0.00 0.00
8:53 pm 20:53 Clear 73 22.8 57 13.9 57 57 SE 3 6 30.09 1019 10 16 0.00 0.00
9:53 pm 21:53 Clear 69 20.6 57 13.9 66 66 SSE 7 11 30.08 1019 10 16 0.00 0.00
10:53 pm 22:53 Partly Cloudy 67 19.4 57 13.9 71 71 Calm 30.09 1019 10 16 0.00 0.00
11:53 pm 23:53 Partly Cloudy 67 19.4 59 15 76 76 SSE 5 7 30.09 1019 10 16 0.00 0.00

Powered by AerisWeather